"Period start","avg(HW err(1)/warn(2) (#))","avg(Visibility (m))","avg(Weather code (#))","avg(Precip intensity (mm/h))","min(HW err(1)/warn(2) (#))","max(HW err(1)/warn(2) (#))","std(HW err(1)/warn(2) (#))","med(HW err(1)/warn(2) (#))","min(Visibility (m))","max(Visibility (m))","std(Visibility (m))","med(Visibility (m))","min(Weather code (#))","max(Weather code (#))","std(Weather code (#))","med(Weather code (#))","min(Precip intensity (mm/h))","max(Precip intensity (mm/h))","std(Precip intensity (mm/h))","med(Precip intensity (mm/h))"
2013-09-23 00:00:00,2,11137,39,0.12,2,2,0,2,1388,34184,10126,7160,0,77,29,41,0.00,0.55,0.18,0.05
2013-09-23 00:10:00,2,10807,59,0.09,2,2,0,2,2016,23660,6532,9822,0,77,30,71,0.00,0.80,0.24,0.00
2013-09-23 00:20:00,2,37244,0,0.00,2,2,0,2,24189,49078,8273,37000,0,0,0,0,0.00,0.00,0.00,0.00
2013-09-23 00:30:00,2,31366,0,0.00,2,2,0,2,8813,50000,14789,31230,0,0,0,0,0.00,0.00,0.00,0.00
2013-09-23 00:40:00,2,41038,0,0.00,2,2,0,2,35181,49082,3849,40234,0,0,0,0,0.00,0.00,0.00,0.00
2013-09-23 00:50:00,2,48199,0,0.00,2,2,0,2,44499,50000,1874,48926,0,0,0,0,0.00,0.00,0.00,0.00
2013-09-23 01:00:00,2,49786,0,0.00,2,2,0,2,47863,50000,641,50000,0,0,0,0,0.00,0.00,0.00,0.00
2013-09-23 01:10:00,2,46967,0,0.00,2,2,0,2,22370,50000,8218,50000,0,0,0,0,0.00,0.00,0.00,0.00
2013-09-23 01:20:00,2,33764,0,0.00,2,2,0,2,15100,50000,12035,33478,0,0,0,0,0.00,0.00,0.00,0.00
2013-09-23 01:30:00,2,45844,0,0.00,2,2,0,2,34325,50000,4800,46862,0,0,0,0,0.00,0.00,0.00,0.00
2013-09-23 01:40:00,2,45751,0,0.00,2,2,0,2,37373,50000,5512,50000,0,0,0,0,0.00,0.00,0.00,0.00
2013-09-23 01:50:00,2,32040,0,0.00,2,2,0,2,15149,42633,7260,31963,0,0,0,0,0.00,0.00,0.00,0.00
2013-09-23 02:00:00,2,46313,0,0.00,2,2,0,2,38182,50000,4656,49442,0,0,0,0,0.00,0.00,0.00,0.00
2013-09-23 02:10:00,2,48268,0,0.00,2,2,0,2,43619,50000,2334,48976,0,0,0,0,0.00,0.00,0.00,0.00
2013-09-23 02:20:00,2,46564,0,0.00,2,2,0,2,36410,50000,4825,49037,0,0,0,0,0.00,0.00,0.00,0.00
2013-09-23 02:30:00,2,43844,0,0.00,2,2,0,2,11606,50000,11523,50000,0,0,0,0,0.00,0.00,0.00,0.00
2013-09-23 02:40:00,2,32038,0,0.00,2,2,0,2,8266,50000,13144,33859,0,0,0,0,0.00,0.00,0.00,0.00
2013-09-23 02:50:00,2,43534,0,0.00,2,2,0,2,27300,50000,7649,46455,0,0,0,0,0.00,0.00,0.00,0.00
2013-09-23 03:00:00,2,49107,0,0.00,2,2,0,2,44811,50000,1599,50000,0,0,0,0,0.00,0.00,0.00,0.00
2013-09-23 03:10:00,2,37707,0,0.00,2,2,0,2,18063,50000,10961,42336,0,0,0,0,0.00,0.00,0.00,0.00
2013-09-23 03:20:00,2,14580,12,0.04,2,2,0,2,2034,38269,12430,9141,0,40,18,0,0.00,0.20,0.07,0.00
2013-09-23 03:30:00,2,13238,40,0.07,2,2,0,2,1920,41126,11417,8307,10,77,32,25,0.00,0.60,0.18,0.00
2013-09-23 03:40:00,2,24315,3,0.00,2,2,0,2,8468,42991,12247,21004,0,10,5,0,0.00,0.00,0.00,0.00
2013-09-23 03:50:00,2,33625,0,0.00,2,2,0,2,18795,48400,9836,34491,0,0,0,0,0.00,0.00,0.00,0.00
2013-09-23 04:00:00,2,23343,44,0.01,2,2,0,2,7600,47934,15263,17208,0,77,36,71,0.00,0.05,0.02,0.00
2013-09-23 04:10:00,2,47405,0,0.00,2,2,0,2,40562,50000,2968,48302,0,0,0,0,0.00,0.00,0.00,0.00
2013-09-23 04:20:00,2,49441,0,0.00,2,2,0,2,47019,50000,938,50000,0,0,0,0,0.00,0.00,0.00,0.00
2013-09-23 04:30:00,2,48893,0,0.00,2,2,0,2,43944,50000,2054,50000,0,0,0,0,0.00,0.00,0.00,0.00
2013-09-23 04:40:00,2,44196,0,0.00,2,2,0,2,35554,50000,5485,44286,0,0,0,0,0.00,0.00,0.00,0.00
2013-09-23 04:50:00,2,46375,0,0.00,2,2,0,2,38420,50000,3842,47709,0,0,0,0,0.00,0.00,0.00,0.00
2013-09-23 05:00:00,2,26864,0,0.00,2,2,0,2,6660,42070,15997,36485,0,0,0,0,0.00,0.00,0.00,0.00
2013-09-23 05:10:00,2,20740,0,0.00,2,2,0,2,6514,38080,9837,22417,0,0,0,0,0.00,0.00,0.00,0.00
2013-09-23 05:20:00,2,44651,0,0.00,2,2,0,2,27826,50000,6177,47014,0,0,0,0,0.00,0.00,0.00,0.00
2013-09-23 05:30:00,2,10100,18,0.04,2,2,0,2,4272,22536,4652,9053,0,51,23,0,0.00,0.25,0.08,0.00
2013-09-23 05:40:00,2,12585,10,0.00,2,2,0,2,6293,24175,5972,10275,10,10,0,10,0.00,0.00,0.00,0.00
2013-09-23 05:50:00,2,18178,2,0.00,2,2,0,2,9834,32646,5683,17636,0,10,4,0,0.00,0.00,0.00,0.00
2013-09-23 06:00:00,2,24731,0,0.00,2,2,0,2,10338,41719,10166,24962,0,0,0,0,0.00,0.00,0.00,0.00
2013-09-23 06:10:00,2,11371,27,0.02,2,2,0,2,3166,42869,12300,4900,0,77,30,20,0.00,0.05,0.02,0.00
2013-09-23 06:20:00,2,8434,76,0.01,2,2,0,2,4930,11742,1999,8558,71,77,2,77,0.00,0.05,0.02,0.00
2013-09-23 06:30:00,2,9953,37,0.00,2,2,0,2,4978,15090,2890,9923,0,77,37,36,0.00,0.00,0.00,0.00
2013-09-23 06:40:00,2,7633,74,0.07,2,2,0,2,2698,11721,2862,8133,71,77,3,74,0.00,0.55,0.16,0.00
2013-09-23 06:50:00,2,8100,73,0.10,2,2,0,2,4362,16044,3448,7054,71,77,3,71,0.00,0.45,0.12,0.05
2013-09-23 07:00:00,2,4096,76,0.32,2,2,0,2,2843,5757,877,3893,71,77,2,77,0.05,0.85,0.24,0.25
2013-09-23 07:10:00,2,7891,74,0.07,2,2,0,2,4735,12145,2320,7070,71,77,3,74,0.00,0.50,0.15,0.00
2013-09-23 07:20:00,2,11470,23,0.00,2,2,0,2,6016,22116,4761,9506,10,77,26,10,0.00,0.00,0.00,0.00
2013-09-23 07:30:00,2,7122,41,0.00,2,2,0,2,3158,10209,2075,6890,10,77,31,40,0.00,0.00,0.00,0.00
2013-09-23 07:40:00,2,7845,75,0.01,2,2,0,2,5216,10638,1976,8321,71,77,3,77,0.00,0.05,0.02,0.00
2013-09-23 07:50:00,2,13795,61,0.00,2,2,0,2,8546,22977,5035,10958,10,77,26,71,0.00,0.00,0.00,0.00
2013-09-23 08:00:00,2,26762,0,0.00,2,2,0,2,16186,35169,5396,26782,0,0,0,0,0.00,0.00,0.00,0.00
2013-09-23 08:10:00,2,27467,0,0.00,2,2,0,2,17629,39555,7200,27958,0,0,0,0,0.00,0.00,0.00,0.00
2013-09-23 08:20:00,2,14301,0,0.00,2,2,0,2,6324,24270,5941,14170,0,0,0,0,0.00,0.00,0.00,0.00
2013-09-23 08:30:00,2,15831,3,0.00,2,2,0,2,6190,30221,9456,9525,0,10,5,0,0.00,0.00,0.00,0.00
2013-09-23 08:40:00,2,37209,0,0.00,2,2,0,2,14252,50000,13867,44355,0,0,0,0,0.00,0.00,0.00,0.00
2013-09-23 08:50:00,2,48587,0,0.00,2,2,0,2,42155,50000,2565,50000,0,0,0,0,0.00,0.00,0.00,0.00
2013-09-23 09:00:00,2,47784,0,0.00,2,2,0,2,37990,50000,4451,50000,0,0,0,0,0.00,0.00,0.00,0.00
2013-09-23 09:10:00,2,33260,0,0.00,2,2,0,2,12062,50000,15169,36645,0,0,0,0,0.00,0.00,0.00,0.00
2013-09-23 09:20:00,2,19427,0,0.00,2,2,0,2,8055,41625,10421,14988,0,0,0,0,0.00,0.00,0.00,0.00
2013-09-23 09:30:00,2,49203,0,0.00,2,2,0,2,42027,50000,2392,50000,0,0,0,0,0.00,0.00,0.00,0.00
2013-09-23 09:40:00,2,50000,0,0.00,2,2,0,2,50000,50000,0,50000,0,0,0,0,0.00,0.00,0.00,0.00
2013-09-23 09:50:00,2,49892,0,0.00,2,2,0,2,48921,50000,324,50000,0,0,0,0,0.00,0.00,0.00,0.00
2013-09-23 10:00:00,2,29088,0,0.00,2,2,0,2,4819,50000,16161,31727,0,0,0,0,0.00,0.00,0.00,0.00
2013-09-23 10:10:00,2,45543,0,0.00,2,2,0,2,38658,50000,4452,46690,0,0,0,0,0.00,0.00,0.00,0.00
2013-09-23 10:20:00,2,42546,0,0.00,2,2,0,2,19289,50000,9192,45059,0,0,0,0,0.00,0.00,0.00,0.00
2013-09-23 10:30:00,2,5303,46,0.04,2,2,0,2,2434,11191,2736,4554,0,77,34,58,0.00,0.10,0.04,0.05
2013-09-23 10:40:00,2,17198,36,0.08,2,2,0,2,1867,44187,13853,16040,0,71,36,36,0.00,0.50,0.16,0.00
2013-09-23 10:50:00,2,2815,75,0.29,2,2,0,2,1623,6590,1341,2340,71,77,3,77,0.00,1.40,0.41,0.12
2013-09-23 11:00:00,2,1095,71,3.51,2,2,0,2,774,1703,257,1032,71,71,0,71,2.15,5.40,1.01,3.28
2013-09-23 11:10:00,2,21444,36,0.12,2,2,0,2,2018,50000,18376,14772,0,71,36,36,0.00,0.90,0.27,0.00
2013-09-23 11:20:00,2,23496,36,0.12,2,2,0,2,1634,50000,21982,11442,0,71,36,36,0.00,0.80,0.24,0.00
2013-09-23 11:30:00,2,12992,50,0.45,2,2,0,2,1182,41855,14203,6288,0,71,33,71,0.00,2.20,0.68,0.10
2013-09-23 11:40:00,2,46058,0,0.00,2,2,0,2,27760,50000,7412,50000,0,0,0,0,0.00,0.00,0.00,0.00
2013-09-23 11:50:00,2,50000,0,0.00,2,2,0,2,50000,50000,0,50000,0,0,0,0,0.00,0.00,0.00,0.00
2013-09-23 12:00:00,2,50000,0,0.00,2,2,0,2,50000,50000,0,50000,0,0,0,0,0.00,0.00,0.00,0.00
2013-09-23 12:10:00,2,50000,0,0.00,2,2,0,2,50000,50000,0,50000,0,0,0,0,0.00,0.00,0.00,0.00
2013-09-23 12:20:00,2,46099,0,0.00,2,2,0,2,34525,50000,5127,49657,0,0,0,0,0.00,0.00,0.00,0.00
2013-09-23 12:30:00,2,50000,0,0.00,2,2,0,2,50000,50000,0,50000,0,0,0,0,0.00,0.00,0.00,0.00
2013-09-23 12:40:00,2,42134,0,0.00,2,2,0,2,17707,50000,10840,48258,0,0,0,0,0.00,0.00,0.00,0.00
2013-09-23 12:50:00,2,50000,0,0.00,2,2,0,2,50000,50000,0,50000,0,0,0,0,0.00,0.00,0.00,0.00
2013-09-23 13:00:00,2,50000,0,0.00,2,2,0,2,50000,50000,0,50000,0,0,0,0,0.00,0.00,0.00,0.00
2013-09-23 13:10:00,2,50000,0,0.00,2,2,0,2,50000,50000,0,50000,0,0,0,0,0.00,0.00,0.00,0.00
2013-09-23 13:20:00,2,30028,4,0.01,2,2,0,2,6548,50000,18720,30588,0,40,12,0,0.00,0.10,0.03,0.00
2013-09-23 13:30:00,2,8254,64,0.12,2,2,0,2,4808,15481,2825,7695,41,77,16,72,0.05,0.35,0.10,0.08
2013-09-23 13:40:00,2,4203,72,0.29,2,2,0,2,2592,5917,1104,4134,71,77,2,71,0.05,0.85,0.23,0.25
2013-09-23 13:50:00,2,2005,71,1.08,2,2,0,2,1305,3465,708,1840,71,71,0,71,0.30,1.85,0.49,1.12
2013-09-23 14:00:00,2,2044,71,1.66,2,2,0,2,1035,3031,668,1930,71,71,0,71,0.25,5.00,1.41,1.48
2013-09-23 14:10:00,2,2088,71,0.98,2,2,0,2,1179,3511,681,1908,71,71,0,71,0.10,2.85,0.96,0.58
2013-09-23 14:20:00,2,6132,71,0.14,2,2,0,2,3593,10569,1955,5950,71,71,0,71,0.00,0.30,0.11,0.12
2013-09-23 14:30:00,2,19315,74,0.01,2,2,0,2,7286,33959,7371,20184,71,77,3,74,0.00,0.05,0.02,0.00
2013-09-23 14:40:00,2,13848,74,0.01,2,2,0,2,6132,26547,6058,12006,71,77,3,74,0.00,0.05,0.02,0.00
2013-09-23 14:50:00,2,16568,75,0.00,2,2,0,2,12453,31255,5367,14887,71,77,3,77,0.00,0.00,0.00,0.00
2013-09-23 15:00:00,2,45452,23,0.00,2,2,0,2,32988,50000,6235,49012,0,77,35,0,0.00,0.00,0.00,0.00
2013-09-23 15:10:00,2,47410,0,0.00,2,2,0,2,30945,50000,5789,50000,0,0,0,0,0.00,0.00,0.00,0.00
2013-09-23 15:20:00,2,48805,0,0.00,2,2,0,2,45428,50000,1660,50000,0,0,0,0,0.00,0.00,0.00,0.00
2013-09-23 15:30:00,2,46260,0,0.00,2,2,0,2,40841,50000,3725,46845,0,0,0,0,0.00,0.00,0.00,0.00
2013-09-23 15:40:00,2,31196,4,0.00,2,2,0,2,5471,50000,16214,35064,0,40,12,0,0.00,0.00,0.00,0.00
2013-09-23 15:50:00,2,9532,72,0.03,2,2,0,2,3605,23258,5598,8426,40,77,11,77,0.00,0.05,0.03,0.03
2013-09-23 16:00:00,2,34395,74,0.01,2,2,0,2,20923,50000,10015,33150,71,77,3,74,0.00,0.05,0.02,0.00
2013-09-23 16:10:00,2,50000,0,0.00,2,2,0,2,50000,50000,0,50000,0,0,0,0,0.00,0.00,0.00,0.00
2013-09-23 16:20:00,2,50000,0,0.00,2,2,0,2,50000,50000,0,50000,0,0,0,0,0.00,0.00,0.00,0.00
2013-09-23 16:30:00,2,50000,0,0.00,2,2,0,2,50000,50000,0,50000,0,0,0,0,0.00,0.00,0.00,0.00
2013-09-23 16:40:00,2,50000,0,0.00,2,2,0,2,50000,50000,0,50000,0,0,0,0,0.00,0.00,0.00,0.00
2013-09-23 16:50:00,2,50000,0,0.00,2,2,0,2,50000,50000,0,50000,0,0,0,0,0.00,0.00,0.00,0.00
2013-09-23 17:00:00,2,50000,0,0.00,2,2,0,2,50000,50000,0,50000,0,0,0,0,0.00,0.00,0.00,0.00
2013-09-23 17:10:00,2,50000,0,0.00,2,2,0,2,50000,50000,0,50000,0,0,0,0,0.00,0.00,0.00,0.00
2013-09-23 17:20:00,2,50000,0,0.00,2,2,0,2,50000,50000,0,50000,0,0,0,0,0.00,0.00,0.00,0.00
2013-09-23 17:30:00,2,50000,0,0.00,2,2,0,2,50000,50000,0,50000,0,0,0,0,0.00,0.00,0.00,0.00
2013-09-23 17:40:00,2,50000,0,0.00,2,2,0,2,50000,50000,0,50000,0,0,0,0,0.00,0.00,0.00,0.00
2013-09-23 17:50:00,2,50000,0,0.00,2,2,0,2,50000,50000,0,50000,0,0,0,0,0.00,0.00,0.00,0.00
2013-09-23 18:00:00,2,50000,0,0.00,2,2,0,2,50000,50000,0,50000,0,0,0,0,0.00,0.00,0.00,0.00
2013-09-23 18:10:00,2,50000,0,0.00,2,2,0,2,50000,50000,0,50000,0,0,0,0,0.00,0.00,0.00,0.00
2013-09-23 18:20:00,2,50000,0,0.00,2,2,0,2,50000,50000,0,50000,0,0,0,0,0.00,0.00,0.00,0.00
2013-09-23 18:30:00,2,50000,0,0.00,2,2,0,2,50000,50000,0,50000,0,0,0,0,0.00,0.00,0.00,0.00
2013-09-23 18:40:00,2,50000,0,0.00,2,2,0,2,50000,50000,0,50000,0,0,0,0,0.00,0.00,0.00,0.00
2013-09-23 18:50:00,2,50000,0,0.00,2,2,0,2,50000,50000,0,50000,0,0,0,0,0.00,0.00,0.00,0.00
2013-09-23 19:00:00,2,50000,0,0.00,2,2,0,2,50000,50000,0,50000,0,0,0,0,0.00,0.00,0.00,0.00
2013-09-23 19:10:00,2,50000,0,0.00,2,2,0,2,50000,50000,0,50000,0,0,0,0,0.00,0.00,0.00,0.00
2013-09-23 19:20:00,2,50000,0,0.00,2,2,0,2,50000,50000,0,50000,0,0,0,0,0.00,0.00,0.00,0.00
2013-09-23 19:30:00,2,50000,0,0.00,2,2,0,2,50000,50000,0,50000,0,0,0,0,0.00,0.00,0.00,0.00
2013-09-23 19:40:00,2,50000,0,0.00,2,2,0,2,50000,50000,0,50000,0,0,0,0,0.00,0.00,0.00,0.00
2013-09-23 19:50:00,2,50000,0,0.00,2,2,0,2,50000,50000,0,50000,0,0,0,0,0.00,0.00,0.00,0.00
2013-09-23 20:00:00,2,49928,0,0.00,2,2,0,2,49279,50000,216,50000,0,0,0,0,0.00,0.00,0.00,0.00
2013-09-23 20:10:00,2,50000,0,0.00,2,2,0,2,50000,50000,0,50000,0,0,0,0,0.00,0.00,0.00,0.00
2013-09-23 20:20:00,2,49705,0,0.00,2,2,0,2,48314,50000,597,50000,0,0,0,0,0.00,0.00,0.00,0.00
2013-09-23 20:30:00,2,50000,0,0.00,2,2,0,2,50000,50000,0,50000,0,0,0,0,0.00,0.00,0.00,0.00
2013-09-23 20:40:00,2,50000,0,0.00,2,2,0,2,50000,50000,0,50000,0,0,0,0,0.00,0.00,0.00,0.00
2013-09-23 20:50:00,2,50000,0,0.00,2,2,0,2,50000,50000,0,50000,0,0,0,0,0.00,0.00,0.00,0.00
2013-09-23 21:00:00,2,25088,12,0.02,2,2,0,2,6453,41850,13445,25557,0,40,18,0,0.00,0.15,0.05,0.00
2013-09-23 21:10:00,2,3483,73,0.58,2,2,0,2,2787,5065,680,3333,71,77,3,71,0.15,0.95,0.28,0.65
2013-09-23 21:20:00,2,3523,71,0.64,2,2,0,2,2587,4013,440,3612,71,71,0,71,0.20,1.00,0.24,0.68
2013-09-23 21:30:00,2,4311,71,0.37,2,2,0,2,3204,5414,591,4188,71,71,0,71,0.25,0.55,0.09,0.38
2013-09-23 21:40:00,2,4315,71,0.57,2,2,0,2,3097,5431,621,4380,71,71,0,71,0.30,0.90,0.21,0.57
2013-09-23 21:50:00,2,5195,71,0.44,2,2,0,2,3621,8221,1354,4893,71,71,0,71,0.10,0.70,0.18,0.42
2013-09-23 22:00:00,2,5696,71,0.32,2,2,0,2,3853,6927,1087,6278,71,71,0,71,0.15,0.60,0.15,0.30
2013-09-23 22:10:00,2,3481,71,0.59,2,2,0,2,3104,3789,199,3452,71,71,0,71,0.30,0.85,0.15,0.57
2013-09-23 22:20:00,2,3946,71,0.38,2,2,0,2,3544,4393,221,3936,71,71,0,71,0.15,0.65,0.16,0.35
2013-09-23 22:30:00,2,4392,71,0.15,2,2,0,2,3330,5653,681,4234,71,71,0,71,0.10,0.35,0.09,0.10
2013-09-23 22:40:00,2,4495,75,0.15,2,2,0,2,3496,5011,394,4597,71,77,3,77,0.10,0.25,0.06,0.12
2013-09-23 22:50:00,2,4701,71,0.12,2,2,0,2,3850,5803,653,4728,71,71,0,71,0.05,0.25,0.07,0.12
2013-09-23 23:00:00,2,4952,76,0.05,2,2,0,2,4248,6086,530,4930,71,77,2,77,0.00,0.10,0.02,0.05
2013-09-23 23:10:00,2,5564,77,0.03,2,2,0,2,4266,6482,637,5674,77,77,0,77,0.00,0.05,0.02,0.05
2013-09-23 23:20:00,2,6101,77,0.03,2,2,0,2,5374,6915,403,6003,77,77,0,77,0.00,0.05,0.02,0.05
2013-09-23 23:30:00,2,5368,77,0.03,2,2,0,2,4566,6219,521,5268,77,77,0,77,0.00,0.05,0.03,0.03
2013-09-23 23:40:00,2,4548,77,0.04,2,2,0,2,3715,5764,666,4408,77,77,0,77,0.00,0.05,0.02,0.05
2013-09-23 23:50:00,2,3476,77,0.04,2,2,0,2,2723,5125,703,3272,77,77,0,77,0.00,0.05,0.02,0.05
